Location: Bremen
(53.0793°N, 8.8017°E)
Time: 20:10:43
(UTC+02:00)

Envisat - Pass Details

Date: 02 March 2024
Orbit: 762 x 764 km, 98.3° (Epoch: 13 April)

Event Time Altitude Azimuth Distance (km) Brightness Sun altitude
Rises 04:01:26 0° 15° (NNE) 3,244 6.8 -28.2°
Reaches altitude 10° 04:03:45 10° 17° (NNE) 2,313 6.0 -27.9°
Maximum altitude 04:08:52 81° 104° (ESE) 781 2.9 -27.2°
Enters shadow 04:08:55 81° 117° (ESE) 781 2.9 -27.2°
